COSMOS 940

Satellite information

Favourite Embed

Satellite Type and Status

PAYLOADIN ORBIT

Key statistics

Satellite COSMOS 940 at a glance.

Uptime

17651

Days in orbit

Revolutions

≈ 12.6

Per day

Orbit

LEO

Low Earth Orbit

Inclination

74.0

Latest

Satellite identification and parameters

Extended collection of information and parameters for COSMOS 940.

Object identification

Identified? True

Debris? False

Object name: COSMOS 940

International designator: 1977-079B

Object number (NORAD): 10286

Object ID (CCSDS): 10286

Country: COMMONWEALTH OF INDEPENDENT STATES (CIS)

Current information (Y/N): Y

RCS size: MEDIUM

Orbital parameters

Period: 114.386 minutes

Inclination: 74.0224 deg

SMA: 7805.626 km

Apoapsis: 1461.109 km

Periapsis: 1393.872 km

RAAN: 170.4637 deg

Eccentricy: 0.00430694

Argument of periapsis: 131.1731 deg

Mean anomaly: 346.4826 deg

Mean motion: 12.58899849 rev/day

Mean motion (dot): -0.00000011 rev/day2

B* drag term: 0.000027830806 1/REarth

Two-line elements (TLE)

Creation date: Dec. 20, 2025, 3:40 a.m.

Reference frame: TEME

Reference center: EARTH

Epoch: Dec. 19, 2025, 11:05 p.m. UTC

TLE line 0: 0 COSMOS 940

TLE line 1: 1 10286U 77079B 25353.96220490 -.00000011 00000-0 27831-4 0 9995

TLE line 2: 2 10286 74.0224 170.4637 0043069 131.1731 346.4826 12.58899849189627

Live tracking on map

Real-time ground track for satellite COSMOS 940.

In-orbit conjunctions

There are no conjunctions computed for COSMOS 940, at the moment. Check back to stay up to date, as we update our databases every day.

Go to all conjunctions

Associated space launch

High-resolution film-return Zenit reconnaissance satellite

COSMOS 940 was lifted into orbit during the mission ‘Soyuz U | Zenit-4MKM 4’, on board a Soyuz U space rocket.

The launch took place on Aug. 24, 1977, 2:29 p.m. from 43/4 (43R).

For more information about the launch, click the button.

Launch to space Soyuz U | Zenit-4MKM 4
Soyuz U | Zenit-4MKM 4

Agency: N/A

Status: Launch Successful

Launch date: Aug. 24, 1977, 2:29 p.m. UTC

Rocket: Soyuz U

Launch pad: 43/4 (43R)

Location: Plesetsk Cosmodrome, Russian Federation

...

Latest news about this satellite

There are no fresh news available about this satellite. Check back as we update our databases every day.


Newsletter sign-up

Weekly statistics, charts and insights to help you stay on top of the space industry.